ONEWEB-0398 (50478 NORAD) Tracking and Keplerian Element Data

This shows tracking and keplerian element data for the satellite.

Feedback or suggestion? Click here.




ElementValue
Catalog50478
NameONEWEB-0398
Epoch Orbit2182
Epoch Day140.91667824
Epoch Year2022
RAAN316.939
Inclination87.8861
Eccentricity0.0001732
Argument of Perigee116.3969
Mean Anonmoly12.1899
Mean Motion13.11883242
Decay Rate-0.00139741
L11 50478U 21132K 22140.91667824 -.00139741 00000+0 -39761+0 0 9996
L22 50478 87.8861 316.9390 0001732 116.3969 12.1899 13.11883242 21829

Live tracking and technical data element details for ONEWEB-0398 (NORAD 50478). ONEWEB-0398 can be tracked NOW for your location showing map with azimuth and elevation plus other details from your city location.

Track the satellite on the map from your city or location and see movement details for azimuth, elevation, latitude, longitude, range, height, and movement on the map or in text.







IsCatalogInMostPopularTable: catalog: 50478, numindb: 21
Update: records affected: 1



GetName: 50478 ONEWEB-0398

Hit Count: updated at: Mon, 23 May 2022 21:21:14 GMT